Simultaneous Nadir Overpasses (SNOs) Predictions

Prediction of SNOs between FY3D and TERRA Satellite Orbit:

Table of predicted SNOs for the next 14.0 days since TLE Epoch: 7/3/2021
Index Date (FY3D) Time (FY3D) Lat,Lon (FY3D) SZA (FY3D ) Date (TERRA) Time (TERRA) Lat,Lon (TERRA) SZA (TERRA ) Distance(km) Time Diff (sec)
1 07/03/2021 15:32:22 70.75, -54.66 47.77 07/03/2021 15:33:29 70.63, -52.50 47.62 80.55 67
2 07/03/2021 16:22:48 -69.85, 114.10 133.16 07/03/2021 16:23:11 -69.86, 114.02 133.15 3.11 23
3 07/03/2021 17:13:32 69.75, -78.46 46.76 07/03/2021 17:12:38 69.75, -78.48 46.75 0.80 54
4 07/06/2021 08:39:08 -69.91,-130.06 132.84 07/06/2021 08:39:36 -69.92,-130.01 132.83 2.43 28
5 07/06/2021 09:29:51 69.77, 37.46 47.03 07/06/2021 09:29:04 69.76, 37.41 47.01 2.48 47
6 07/09/2021 00:55:27 -69.92, -14.14 132.53 07/09/2021 00:56:02 -69.93, -14.12 132.53 0.74 35
7 07/09/2021 01:46:10 69.80, 153.37 47.35 07/09/2021 01:45:29 69.81, 153.37 47.37 1.98 41
8 07/11/2021 17:11:45 -69.94, 101.78 132.16 07/11/2021 17:12:27 -69.92, 101.76 132.18 2.01 42
9 07/11/2021 18:02:28 69.82, -90.73 47.72 07/11/2021 18:01:54 69.81, -90.76 47.71 1.65 34
10 07/14/2021 09:28:04 -69.96,-142.31 131.75 07/14/2021 09:28:52 -69.97,-142.29 131.75 1.41 48
11 07/14/2021 10:18:47 69.84, 25.18 48.14 07/14/2021 10:18:19 69.85, 25.19 48.15 1.06 28
12 07/14/2021 11:09:11 -68.80,-166.01 132.92 07/14/2021 11:08:05 -68.87,-168.48 132.82 99.65 66



Historial Predications of SNOs between FY3D and TERRA
